When you browse on this site, cookies collect data to enhance your experience and personalize the content and advertising you see.
Visit our Privacy Policy to learn more. By continuing to use the site, you agree to this use of cookies and data.
  • In Italy
  • List of Countries
  • For 7 days
  • Water Temperature
  • Satellite Maps
  • Weather Map
  • Weather Widgets
  • user-avatar
    Login

    Hourly Weather Janislawiec

    Today, 17 January, Thursday

    Time Temperature Precipitation Wind Pressure Humidity
    00:00 +2°C° 0 mm 8 mps 741 mmHg 82%
    01:00 +3°C° 0 mm 6 mps 740 mmHg 81%
    02:00 +3°C° 0.1 mm 7 mps 739 mmHg 81%
    03:00 +2°C° 0.1 mm 7 mps 739 mmHg 81%
    04:00 +2°C° 0.1 mm 7 mps 738 mmHg 81%
    05:00 +1°C° 0.6 mm 8 mps 738 mmHg 82%
    06:00 +1°C° 0.6 mm 8 mps 737 mmHg 82%
    07:00 +1°C° 0.6 mm 8 mps 737 mmHg 82%
    08:00 +1°C° 0.6 mm 8 mps 737 mmHg 83%
    09:00 +1°C° 0.6 mm 8 mps 737 mmHg 83%
    10:00 +1°C° 0.6 mm 8 mps 738 mmHg 84%
    11:00 +2°C° 0.1 mm 8 mps 738 mmHg 81%
    12:00 +2°C° 0.1 mm 8 mps 738 mmHg 77%
    13:00 +2°C° 0.1 mm 8 mps 738 mmHg 74%
    14:00 +2°C° 0.1 mm 8 mps 739 mmHg 74%
    15:00 +2°C° 0.1 mm 8 mps 739 mmHg 74%
    16:00 +1°C° 0.1 mm 8 mps 739 mmHg 74%
    17:00 +1°C° 0 mm 8 mps 739 mmHg 74%
    18:00 +1°C° 0 mm 8 mps 739 mmHg 74%
    19:00 +2°C° 0 mm 7 mps 739 mmHg 75%
    20:00 0°C° 0 mm 7 mps 739 mmHg 76%
    21:00 +1°C° 0 mm 6 mps 740 mmHg 77%
    22:00 +1°C° 0 mm 5 mps 740 mmHg 79%
    23:00 +1°C° 0 mm 4 mps 740 mmHg 81%

    Tomorrow, 18 January, Friday

    Time Temperature Precipitation Wind Pressure Humidity
    00:00 0°C° 0 mm 4 mps 740 mmHg 83%
    01:00 +1°C° 0 mm 3 mps 740 mmHg 86%
    02:00 0°C° 0.6 mm 4 mps 741 mmHg 87%
    03:00 -1°C° 0.6 mm 4 mps 741 mmHg 88%
    04:00 -1°C° 0.6 mm 5 mps 742 mmHg 89%
    05:00 -2°C° 1.1 mm 6 mps 743 mmHg 84%
    06:00 -3°C° 1.1 mm 6 mps 744 mmHg 80%
    07:00 -3°C° 1.1 mm 7 mps 745 mmHg 76%
    08:00 -3°C° 0 mm 7 mps 746 mmHg 75%
    09:00 -3°C° 0 mm 6 mps 747 mmHg 73%
    10:00 -3°C° 0 mm 6 mps 748 mmHg 72%
    11:00 -3°C° 0 mm 6 mps 749 mmHg 73%
    12:00 -3°C° 0 mm 6 mps 750 mmHg 73%
    13:00 -2°C° 0 mm 6 mps 751 mmHg 74%
    14:00 -2°C° 0 mm 5 mps 751 mmHg 73%
    15:00 -2°C° 0 mm 5 mps 752 mmHg 71%
    16:00 -3°C° 0 mm 4 mps 752 mmHg 69%
    17:00 -3°C° 0 mm 4 mps 753 mmHg 69%
    18:00 -3°C° 0 mm 4 mps 753 mmHg 68%
    19:00 -2°C° 0 mm 3 mps 754 mmHg 67%
    20:00 -2°C° 0 mm 3 mps 754 mmHg 68%
    21:00 -2°C° 0 mm 3 mps 755 mmHg 70%
    22:00 -4°C° 0 mm 3 mps 755 mmHg 72%
    23:00 -4°C° 0 mm 3 mps 755 mmHg 77%

    Day after tomorrow, 19 January, Saturday

    Time Temperature Precipitation Wind Pressure Humidity
    00:00 -4°C° 0 mm 4 mps 755 mmHg 82%
    01:00 -4°C° 0 mm 4 mps 755 mmHg 86%
    02:00 -4°C° 0 mm 4 mps 755 mmHg 87%
    03:00 -4°C° 0 mm 4 mps 755 mmHg 88%
    04:00 -4°C° 0 mm 4 mps 755 mmHg 89%
    05:00 -4°C° 0 mm 4 mps 755 mmHg 88%
    06:00 -3°C° 0 mm 4 mps 756 mmHg 86%
    07:00 -3°C° 0 mm 4 mps 756 mmHg 85%
    08:00 -3°C° 0 mm 4 mps 756 mmHg 84%
    09:00 -2°C° 0 mm 4 mps 756 mmHg 82%
    10:00 -2°C° 0 mm 5 mps 757 mmHg 80%
    11:00 -1°C° 0 mm 5 mps 756 mmHg 80%
    12:00 0°C° 0 mm 5 mps 756 mmHg 80%
    13:00 0°C° 0 mm 5 mps 756 mmHg 79%
    14:00 0°C° 0 mm 4 mps 756 mmHg 81%
    15:00 -1°C° 0 mm 4 mps 756 mmHg 83%
    16:00 -1°C° 0 mm 4 mps 756 mmHg 85%
    17:00 -1°C° 0 mm 4 mps 756 mmHg 86%
    18:00 -2°C° 0 mm 4 mps 757 mmHg 88%
    19:00 -2°C° 0 mm 4 mps 757 mmHg 89%
    20:00 -2°C° 0 mm 4 mps 757 mmHg 89%
    21:00 -2°C° 0 mm 4 mps 757 mmHg 88%
    22:00 -3°C° 0 mm 4 mps 757 mmHg 88%
    23:00 -3°C° 0 mm 4 mps 757 mmHg 87%

    20 January, Sunday

    Time Temperature Precipitation Wind Pressure Humidity
    00:00 -3°C° 0 mm 4 mps 757 mmHg 86%
    01:00 -4°C° 0 mm 3 mps 757 mmHg 85%
    02:00 -4°C° 0 mm 3 mps 757 mmHg 85%
    03:00 -4°C° 0 mm 3 mps 756 mmHg 85%
    04:00 -4°C° 0 mm 3 mps 756 mmHg 84%
    05:00 -4°C° 0 mm 3 mps 756 mmHg 85%
    06:00 -4°C° 0 mm 3 mps 756 mmHg 86%
    07:00 -4°C° 0 mm 3 mps 756 mmHg 87%
    08:00 -2°C° 0 mm 3 mps 756 mmHg 87%
    09:00 -3°C° 0 mm 4 mps 756 mmHg 86%
    10:00 -2°C° 0 mm 4 mps 756 mmHg 86%
    11:00 -2°C° 0 mm 4 mps 756 mmHg 84%
    12:00 -1°C° 0 mm 4 mps 756 mmHg 83%
    13:00 -1°C° 0 mm 4 mps 756 mmHg 81%
    14:00 -1°C° 0 mm 4 mps 756 mmHg 84%
    15:00 -1°C° 0 mm 4 mps 756 mmHg 86%
    16:00 0°C° 0 mm 3 mps 756 mmHg 88%
    17:00 0°C° 0 mm 3 mps 756 mmHg 87%
    18:00 0°C° 0 mm 3 mps 757 mmHg 87%
    19:00 0°C° 0 mm 3 mps 757 mmHg 86%
    20:00 -1°C° 0 mm 3 mps 757 mmHg 86%
    21:00 -1°C° 0 mm 3 mps 757 mmHg 86%
    22:00 -1°C° 0 mm 3 mps 758 mmHg 87%
    23:00 -1°C° 0 mm 2 mps 758 mmHg 87%

    21 January, Monday

    Time Temperature Precipitation Wind Pressure Humidity
    00:00 -2°C° 0 mm 2 mps 758 mmHg 88%
    01:00 0°C° 0 mm 1 mps 758 mmHg 88%
    02:00 0°C° 0 mm 1 mps 758 mmHg 88%
    03:00 0°C° 0 mm 1 mps 758 mmHg 89%
    04:00 0°C° 0 mm 1 mps 758 mmHg 89%
    05:00 0°C° 0 mm 1 mps 758 mmHg 89%
    06:00 0°C° 0 mm 1 mps 758 mmHg 89%
    07:00 0°C° 0 mm 1 mps 758 mmHg 89%
    08:00 0°C° 0 mm 1 mps 759 mmHg 88%
    09:00 0°C° 0 mm 1 mps 759 mmHg 87%
    10:00 +1°C° 0 mm 1 mps 759 mmHg 85%
    11:00 +1°C° 0 mm 1 mps 759 mmHg 83%
    12:00 +1°C° 0 mm 1 mps 759 mmHg 82%
    13:00 +2°C° 0 mm 1 mps 759 mmHg 80%
    14:00 +1°C° 0 mm 1 mps 759 mmHg 82%
    15:00 +1°C° 0 mm 1 mps 758 mmHg 85%
    16:00 0°C° 0 mm 1 mps 758 mmHg 87%
    17:00 0°C° 0 mm 1 mps 758 mmHg 87%
    18:00 -2°C° 0 mm 2 mps 758 mmHg 88%
    19:00 -3°C° 0 mm 2 mps 758 mmHg 88%
    20:00 -3°C° 0 mm 2 mps 758 mmHg 88%
    21:00 -3°C° 0 mm 2 mps 758 mmHg 88%
    22:00 -3°C° 0 mm 2 mps 758 mmHg 88%
    23:00 -3°C° 0 mm 2 mps 758 mmHg 88%

    22 January, Tuesday

    Time Temperature Precipitation Wind Pressure Humidity
    00:00 -3°C° 0 mm 2 mps 757 mmHg 88%
    01:00 -3°C° 0 mm 2 mps 757 mmHg 88%
    02:00 -3°C° 0 mm 2 mps 757 mmHg 87%
    03:00 -3°C° 0 mm 2 mps 756 mmHg 86%
    04:00 -4°C° 0 mm 2 mps 756 mmHg 85%
    05:00 -5°C° 0 mm 3 mps 756 mmHg 85%
    06:00 -5°C° 0 mm 3 mps 756 mmHg 85%
    07:00 -5°C° 0 mm 3 mps 755 mmHg 84%
    08:00 -4°C° 0 mm 3 mps 755 mmHg 82%
    09:00 -4°C° 0 mm 3 mps 755 mmHg 80%
    10:00 -4°C° 0 mm 4 mps 755 mmHg 79%
    11:00 -3°C° 0 mm 4 mps 755 mmHg 76%
    12:00 -3°C° 0 mm 4 mps 755 mmHg 74%
    13:00 -2°C° 0 mm 4 mps 755 mmHg 72%
    14:00 -3°C° 0 mm 4 mps 755 mmHg 75%
    15:00 -3°C° 0 mm 4 mps 754 mmHg 78%
    16:00 -4°C° 0 mm 3 mps 754 mmHg 81%
    17:00 -4°C° 0 mm 3 mps 754 mmHg 82%
    18:00 -4°C° 0 mm 3 mps 754 mmHg 83%
    19:00 -4°C° 0 mm 3 mps 754 mmHg 84%
    20:00 -4°C° 0 mm 3 mps 754 mmHg 83%
    21:00 -5°C° 0 mm 4 mps 754 mmHg 83%
    22:00 -5°C° 0 mm 4 mps 755 mmHg 82%
    23:00 -5°C° 0 mm 3 mps 755 mmHg 80%
    Show more